sat.trackr.live / text

‹ back to catalog

STARLINK-32128

NORAD 60272 · 2024-131T

PAYLOAD ACTIVE UNKNOWN

§ Identity

Operator
Country
US
Launch date
2024-07-27
Launch site
AFETR
Launch vehicle
Mass (kg)
RCS (m²)

Purposes: comms

External: N2YO · Heavens-Above · Gunter

§ Orbital elements

Epoch: 2026-05-25T01:23:19.929984Z

Period
94.11 min
Inclination
53.1600°
Eccentricity
0.0001016
Mean motion
15.30184711 rev/d
Perigee alt
474.6 km
Apogee alt
476.0 km
Semi-major
6,853.4 km
B*
-3.7015e-5
RAAN
57.5151°
Arg perigee
102.8278°
Mean anomaly
257.2837°
Rev number
10,341

§ Raw data

STARLINK-321281 60272U 24131T   26145.05786956 -.00001454  00000+0 -37015-4 0  99972 60272  53.1600  57.5151 0001016 102.8278 257.2837 15.30184711103418

JSON: /api/v1/satellites/60272 · /tle

For live sub-satellite position, see the globe view (requires WebGL).

§ Visibility from observer

Set your observer location to see the next 7 days of passes ≥ 10°. The values pass through the URL so the page stays shareable.

No JS? Fill the form by hand. The geolocation button needs JavaScript.